Seward, AK

9:30 AM AKST on December 12, 2017 (GMT -0900)
Seward

Weather History for PAWD - June, 2013

Change the Weather History Date:

Wednesday, June 26, 2013

  Actual Average Record
Temperature  
Mean Temperature 67 °F -  
Max Temperature 79 °F 60 °F 82 °F (1997)
Min Temperature 55 °F 47 °F 40 °F (1966)
Cooling Degree Days 2    
Growing Degree Days 17 (Base 50)    
Moisture  
Dew Point 50 °F    
Average Humidity 65    
Maximum Humidity 90    
Minimum Humidity 39    
Precipitation  
Precipitation 0.00 in - - ()
Sea Level Pressure  
Sea Level Pressure 29.72 in    
Wind  
Wind Speed 9 mph (East)    
Max Wind Speed 20 mph    
Max Gust Speed 25 mph    
Visibility 10 miles    
Events      
Averages and records for this station are not official NWS values.
T = Trace of Precipitation, MM = Missing Value Source: NWS Daily Summary

Daily Weather History Graph

Daily Weather History Graph

Search for Another Location

Airport or City:

Trip Planner

Search our weather history database for the weather conditions in past years. The results will help you decide how hot, cold, wet, or windy it might be!

Date:

Astronomy

Jun. 26, 2013 Rise Set
Actual Time 4:34 AM AKDT 11:26 PM AKDT
Civil Twilight 2:46 AM AKDT 1:13 AM AKDT
Nautical Twilight Sun does not rise Sun does not rise
Astronomical Twilight Sun does not rise Sun does not rise
Moon 12:07 AM AKDT (6/26) 9:55 AM AKDT (6/26)
Length of Visible Light 22h 26m
Length of Day
18h 52m
Waning Gibbous, 84% of the Moon is Illuminated
Jun 26
Waning Gibbous
Jun 29
Last Quarter
Jul 7
New
Jul 15
First Quarter
Jul 22
Full

Hourly Weather History & Observations

Time (AKDT) Temp. Dew Point Humidity Pressure Visibility Wind Dir Wind Speed Gust Speed Precip Events Conditions
12:53 AM 55.9 °F 48.0 °F 75% 29.62 in 10.0 mi Calm Calm - N/A   Clear
1:53 AM 61.0 °F 46.0 °F 58% 29.61 in 10.0 mi North 11.5 mph - N/A   Clear
2:53 AM 62.1 °F 46.0 °F 56% 29.60 in 10.0 mi North 15.0 mph - N/A   Clear
3:53 AM 61.0 °F 46.0 °F 58% 29.60 in 10.0 mi North 16.1 mph - N/A   Clear
4:53 AM 61.0 °F 46.9 °F 60% 29.58 in 10.0 mi North 15.0 mph - N/A   Clear
5:53 AM 60.1 °F 48.0 °F 64% 29.57 in 10.0 mi NNE 15.0 mph - N/A   Partly Cloudy
6:53 AM 63.0 °F 48.0 °F 58% 29.57 in 10.0 mi NNE 17.3 mph 23.0 mph N/A   Clear
7:53 AM 66.0 °F 48.9 °F 54% 29.56 in 10.0 mi NNE 15.0 mph 23.0 mph N/A   Clear
8:53 AM 71.1 °F 50.0 °F 47% 29.56 in 10.0 mi NNE 13.8 mph 25.3 mph N/A   Clear
9:53 AM 75.0 °F 50.0 °F 41% 29.57 in 10.0 mi NNE 11.5 mph 25.3 mph N/A   Partly Cloudy
10:53 AM 79.0 °F 52.0 °F 39% 29.58 in 10.0 mi North 5.8 mph - N/A   Clear
11:53 AM 63.0 °F 51.1 °F 65% 29.65 in 10.0 mi SSE 6.9 mph - N/A   Overcast
12:53 PM 63.0 °F 51.1 °F 65% 29.70 in 10.0 mi SE 15.0 mph - 0.00 in   Mostly Cloudy
1:53 PM 63.0 °F 51.1 °F 65% 29.74 in 10.0 mi SSE 19.6 mph - N/A   Clear
2:53 PM 62.1 °F 51.1 °F 67% 29.79 in 10.0 mi SE 13.8 mph - 0.00 in   Overcast
3:53 PM 62.1 °F 52.0 °F 70% 29.82 in 10.0 mi SSW 4.6 mph - N/A   Scattered Clouds
4:53 PM 61.0 °F 52.0 °F 72% 29.84 in 10.0 mi SSW 8.1 mph - 0.00 in   Scattered Clouds
5:53 PM 61.0 °F 53.1 °F 75% 29.86 in 10.0 mi ESE 3.5 mph - N/A   Partly Cloudy
6:53 PM 63.0 °F 52.0 °F 67% 29.86 in 10.0 mi SSE 3.5 mph - N/A   Clear
7:53 PM 63.0 °F 53.1 °F 70% 29.87 in 10.0 mi South 4.6 mph - N/A   Clear
8:53 PM 57.9 °F 52.0 °F 81% 29.89 in 10.0 mi South 6.9 mph - N/A   Clear
9:53 PM 59.0 °F 53.1 °F 81% 29.91 in 10.0 mi Calm Calm - N/A   Overcast
10:53 PM 57.9 °F 54.0 °F 87% 29.94 in 10.0 mi SE 3.5 mph - N/A   Overcast
11:53 PM 55.9 °F 53.1 °F 90% 29.96 in 10.0 mi SSE 4.6 mph - N/A   Overcast